{"data":{"norad_id":85023,"intl_designator":"","name":"UNKNOWN","alt_names":[],"object_type":"UNKNOWN","status":"UNKNOWN","operator":null,"country":null,"launch_date":null,"launch_site_code":null,"launch_vehicle":null,"mission":null,"orbit_class":"UNKNOWN","rcs_meters":null,"size_class":null,"mass_kg":null,"dimensions":null,"purposes":[],"wikipedia_slug":null,"has_3d_model":false,"image_url":null,"decayed_at":null,"tle_current":{"epoch":"2026-09-17T04:13:36.153696Z","epoch_age_seconds":305559,"freshness":"STALE","line1":"1 85023U          26260.17611289  .00024725  00000+0  25741-2 0  9999","line2":"2 85023  99.8322 344.3266 0003401 174.6618 215.7736 14.89824696670092","mean_motion":14.89824696,"eccentricity":0.0003401,"inclination_deg":99.8322,"raan_deg":344.3266,"arg_perigee_deg":174.6618,"mean_anomaly_deg":215.7736,"bstar":0.0025741,"rev_number":67009,"period_min":96.655667198042,"perigee_km":596.11014429567,"apogee_km":600.85564114669,"semimajor_km":6976.6198927212,"source":"CELESTRAK","updated_at":"2026-09-20T09:00:32.445173Z"}}}